Probability
0 0 0 0 0 0 0 0 0 0 0 0 0 0 0 0 0 0 0 0 0 0 0 0 0 0 0 0 0 0 0 0 0 0 0 0 0 0 0 0 0 0 0
0 0 0 0 0 0 0 0 0 0 0 0 0 0 0 0 0 0 0 0 0 0 0 0 0 0 0 0 0 0 0 0 0 0 0 0 0 0 0 0 0 0 0
0 0 0 0 0 0 0 0 0 0 0 0 0 0 0 0 0 0 0 0 0 0 0 0 0 0 0 0 0 0 0 0 0 0 0 0 0 0 0 0 0 0 0
0 0 0 0 0 0 0 0 0 0 0 0 0 0 0 0 0 0 0 0 0 0 0 0 0 0 0 0 0 0 0 0 0 0 0 0 0 0 0 0 0 0 0
0 0 0 0 0 0 0 0 0 0 0 0 0 0 0 0 0 0 0 0 0 0 0 0 0 0 0 0 0 0 0 0 0 0 0 0 0 0 0 0 0 0 0
0 0 0 0 0 0 0 0 0 0 0 0 0 0 0 0 0 0 0 0 0 0 0 0 0 0 0 0 0 0 0 0 0 0 0 0 0 0 0 0 0 0 0
0 0 0 0 0 0 0 0 0 0 0 0 0 0 0 0 0 0 0 0 0 0 0 0 0 0 0 0 0 0 0 0 0 0 0 0 0 0 0 0 0 0 0
0 0 0 0 0 0 0 0 0 0 0 0 0 0 0 0 0 0 0 0 0 0 0 0 0 0 0 0 0 0 0 0 0 0 0 0 0 0 0 0 0 0 0
0 0 0 0 0 0 0 0 0 0 0 0 0 0 0 0 0 0 0 0 0 0 0 0 0 0 0 0 0 0 0 0 0 0 0 0 0 0 0 0 0 0 0
0 0 0 0 0 0 0 0 0 0 0 0 0 0 0 0 0 0 0 0 0 0 0 0 0 0 0 0 0 0 0 0 0 0 0 0 0 0 0 0 0 0 0
0 0 0 0 0 0 0 0 0 0 0 0 0 0 0 0 0 0 0 0 0 0 0 0 0 0 0 0 0 0 0 0 0 0 0 0 0 0 0 0 0 0 0
0 0 0 0 0 0 0 0 0 0 0 0 0 0 0 0 0 0 0 0 0 0 0 0 0 0 0 0 0 0 0 0 0 0 0 0 0 0 0 0 0 0 0
0 0 0 0 0 0 0 0 0 0 0 0 0 0 0 0 0 0 0 0 0 0 0 0 0 0 0 0 0 0 0 0 0 0 0 0 0 0 0 0 0 0 0
0 0 0 0 0 0 0 0 0 0 0 0 0 0 0 0 0 0 0 0 0 0 0 0 0 0 0 0 0 0 0 0 0 0 0 0 0 0 0 0 0 0 0
0 0 0 0 0 0 0 0 0 0 0 0 0 0 0 0 0 0 0 0 0 0 0 0 0 0 0 0 0 0 0 0 0 0 0 0 0 0 0 0 0 0 0
0 0 0 0 0 0 0 0 0 0 0 0 0 0 0 0 0 0 0 0 0 0 0 0 0 0 0 0 0 0 0 0 0 0 0 0 0 0 0 0 0 0 0
0 0 0 0 0 0 0 0 0 0 0 0 0 0 0 0 0 0 0 0 0 0 0 0 0 0 0 0 0 0 0 0 0 0 0 0 0 0 0 0 0 0 0
0 0 0 0 0 0 0 0 0 0 0 0 0 0 0 0 0 0 0 0 0 0 0 0 0 0 0 0 0 0 0 0 0 0 0 0 0 0 0 0 0 0 0
0 0 0 0 0 0 0 0 0 0 0 0 0 0 0 0 0 0 0 0 0 0 0 0 0 0 0 0 0 0 0 0 0 0 0 0 0 0 0 0 0 0 0
0 0 0 0 0 0 0 0 0 0 0 0 0 0 0 0 0 0 0 0 0 0 0 0 0 0 0 0 0 0 0 0 0 0 0 0 0 0 0 0 0 0 0
0 0 0 0 0 0 0 0 0 0 0 0 0 0 0 0 0 0 0 0 0 0 0 0 0 0 0 0 0 0 0 0 0 0 0 0 0 0 0 0 0 0 0
0 0 0 0 0 0 0 0 0 0 0 0 0 0 0 0 0 0 0 0 0 0 0 0 0 0 0 0 0 0 0 0 0 0 0 0 0 0 0 0 0 0 0
0 0 0 0 0 0 0 0 0 0 0 0 0 0 0 0 0 0 0 0 0 0 0 0 0 0 0 0 0 0 0 0 0 0 0 0 0 0 0 0 0 0 0
0 0 0 0 0 0 0 0 0 0 0 0 0 0 0 0 0 0 0 0 0 0 0 0 0 0 0 0 0 0 0 0 0 0 0 0 0 0 0 0 0 0 0
0 0 0 0 0 0 0 0 0 0 0 0 0 0 0 0 0 0 0 0 0 0 0 0 0 0 0 0 0 0 0 0 0 0 0 0 0 0 0 0 0 0 0
0 0 0 0 0 0 0 0 0 0 0 0 0 0 0 0 0 0 0 0 0 0 0 0 0 0 0 0 0 0 0 0 0 0 0 0 0 0 0 0 0 0 0
Wind_Speed
10 14 19 18 17 15 14 13 12 11 10 9 10 10 10 10 10 10 10 10 10 10 10 11 11 11 12 13 13 14 14 15 16 16 16 15 15 15 14 13 12 12 15
12 17 20 19 18 16 14 13 12 11 10 10 9 10 9 9 9 9 9 10 10 10 10 10 11 11 11 12 12 13 13 13 14 14 13 13 14 14 14 14 14 11 14
13 18 20 20 18 17 15 14 13 12 11 10 9 9 9 9 8 8 9 9 9 9 9 9 10 10 10 11 11 12 12 12 12 11 10 9 10 13 13 13 13 13 13
13 17 18 20 19 17 16 15 13 12 11 10 10 9 9 8 8 7 8 8 8 8 9 9 9 9 9 10 10 10 11 11 10 9 7 8 8 11 12 12 12 12 12
13 16 17 21 20 18 17 15 14 13 11 11 10 9 8 8 7 7 7 7 7 7 7 7 8 8 8 8 9 9 9 9 8 7 7 8 7 9 10 10 11 11 11
14 16 17 21 20 19 17 16 14 13 12 11 10 9 8 8 7 7 6 6 6 6 6 6 6 7 7 7 7 8 8 7 3 6 6 6 6 8 9 9 9 9 9
13 15 17 20 20 19 17 16 15 14 13 11 11 10 9 8 7 7 6 5 5 5 5 5 5 5 5 5 6 6 6 5 4 4 4 5 6 7 7 7 7 7 7
12 14 15 20 19 18 17 17 16 14 13 12 11 10 9 8 8 7 6 5 5 4 3 3 3 3 3 3 4 4 4 3 1 2 3 4 7 5 5 5 5 5 5
11 13 13 16 16 17 17 16 16 15 14 12 11 11 10 9 8 8 7 6 5 4 3 3 2 1 1 1 2 2 2 3 3 1 2 2 7 5 4 4 3 3 3
10 12 13 14 14 14 14 15 15 14 14 13 11 10 9 9 8 8 8 7 6 6 5 4 3 2 2 1 1 1 1 3 3 3 3 2 7 7 4 4 4 4 3
10 12 13 13 13 13 12 12 14 13 13 12 11 10 8 7 8 7 8 7 7 7 7 6 6 5 4 4 3 2 4 4 3 4 4 4 8 8 7 6 6 6 5
12 13 12 13 12 12 9 9 9 9 10 10 9 9 8 7 5 5 5 8 8 7 8 8 7 7 7 5 4 5 5 5 5 5 4 7 10 11 11 9 9 9 9
10 11 12 12 12 11 8 8 6 6 6 8 10 9 6 6 5 6 5 6 7 7 7 6 7 6 6 5 5 6 6 6 5 5 6 9 12 13 14 13 12 12 12
8 11 12 13 12 11 10 8 7 6 6 6 8 9 7 5 6 6 5 6 6 5 6 6 6 7 8 8 9 9 9 7 6 5 6 11 14 16 16 16 16 15 15
8 9 11 12 13 12 10 8 8 8 7 8 7 8 9 7 7 7 6 6 7 7 7 7 8 9 9 10 9 10 11 11 10 9 7 13 16 18 19 19 19 19 18
7 8 9 12 13 12 10 9 8 8 7 8 8 9 10 8 8 8 8 8 8 8 8 8 10 9 9 9 11 12 12 12 12 12 10 11 17 19 21 21 22 21 21
5 6 8 9 11 12 12 11 8 7 8 8 8 10 11 10 10 9 8 8 9 9 10 9 11 9 9 10 12 14 12 13 13 13 13 11 11 17 22 23 24 24 24
4 5 6 6 8 10 10 9 7 7 8 8 8 8 11 12 12 10 9 9 9 8 8 8 9 9 10 10 11 11 11 11 14 15 13 13 11 11 16 23 26 27 27
7 6 5 5 6 6 7 7 7 6 7 7 7 7 9 11 11 10 9 9 10 8 8 8 9 10 11 11 11 11 11 11 13 13 15 16 15 14 13 17 24 28 29
9 7 6 5 3 4 4 4 4 5 5 6 6 7 9 9 10 10 9 11 10 8 8 9 11 11 10 10 11 12 12 13 13 14 16 15 15 17 17 16 15 18 28
11 9 8 6 4 3 2 2 2 3 4 5 6 8 9 10 10 10 9 10 9 9 11 12 11 12 10 9 9 10 13 15 16 14 14 14 16 17 17 17 14 13 12
12 10 9 7 5 3 1 1 1 2 3 4 5 6 8 9 10 9 11 10 10 9 12 12 11 9 8 7 7 8 9 10 11 12 12 13 14 13 14 16 16 16 13
11 10 8 8 6 4 2 1 1 2 3 3 4 4 6 7 9 9 11 11 10 10 10 12 11 13 10 9 9 8 8 8 7 6 10 11 12 12 12 13 16 16 17
9 8 8 8 7 5 2 0 2 2 3 4 4 4 6 6 7 8 10 10 11 10 11 12 12 11 12 10 9 10 12 10 9 9 7 9 12 13 14 12 14 15 16
7 7 7 7 7 5 3 2 2 3 4 4 5 6 6 5 6 7 8 9 10 9 11 12 12 12 11 12 10 10 12 12 14 12 14 13 12 12 13 14 13 13 15
6 6 6 6 6 5 4 3 3 5 6 6 7 6 6 5 5 6 7 8 9 9 11 11 12 14 13 14 12 11 12 11 11 12 15 15 14 13 14 12 13 13 14
Wind_Direction
176 170 171 175 167 165 162 158 152 146 139 132 126 116 108 103 98 93 90 87 82 78 74 71 70 66 64 62 61 59 58 57 55 53 52 57 64 65 64 59 55 57 55
165 167 171 174 169 168 166 162 157 151 146 142 133 124 116 110 102 97 93 90 85 79 76 72 71 69 68 66 65 64 63 61 56 54 53 55 59 62 60 58 56 57 57
159 165 171 174 171 171 169 165 161 157 153 149 141 132 126 118 110 103 99 92 86 80 77 74 73 71 70 68 66 65 65 63 57 54 56 53 56 61 59 58 57 57 57
164 167 172 172 173 173 172 169 166 163 160 155 148 140 134 127 119 112 105 98 90 84 79 75 75 75 72 70 68 66 65 61 56 51 54 48 48 58 57 55 54 54 56
167 172 171 172 174 175 175 172 169 169 169 163 157 151 145 138 131 123 113 106 98 91 84 78 75 76 75 72 70 68 65 58 54 59 56 48 44 54 56 54 52 52 52
170 174 170 176 176 177 177 176 174 175 175 170 166 162 158 150 142 133 126 118 109 100 93 83 76 74 75 74 72 70 64 49 49 60 53 44 38 49 53 52 50 48 46
172 175 172 178 179 180 180 179 178 179 180 177 175 172 169 162 153 146 144 136 129 120 107 95 82 74 72 75 76 71 61 35 33 58 45 36 27 37 45 45 43 42 41
174 176 173 180 183 183 184 183 182 183 184 185 183 181 179 174 166 163 162 157 154 146 134 119 102 85 69 69 78 78 62 15 19 49 32 24 12 14 29 31 28 30 31
178 180 179 181 185 187 189 188 187 187 189 191 191 189 189 186 181 180 177 178 178 176 170 161 146 122 90 58 70 85 72 17 291 336 329 349 351 342 0 0 358 1 7
183 188 186 186 186 189 191 191 191 192 194 196 196 195 194 196 198 195 192 191 195 197 197 200 206 211 218 251 268 219 156 247 271 270 269 309 327 317 314 313 313 313 314
192 195 194 192 189 192 193 189 193 195 196 199 200 194 196 207 205 202 202 197 210 214 216 219 223 228 229 229 244 230 226 256 268 270 268 287 294 296 290 282 281 279 277
196 195 197 198 194 194 194 193 198 199 198 205 207 201 206 213 215 217 183 207 222 229 231 235 236 233 235 233 203 213 244 254 264 256 254 263 272 278 279 273 268 267 266
200 194 201 200 200 199 197 199 200 200 202 208 212 208 207 210 214 222 217 207 218 225 232 225 231 236 242 247 254 248 258 265 259 259 252 252 262 267 271 270 265 261 260
205 200 201 201 203 205 206 204 204 204 206 209 210 211 209 213 222 228 231 233 232 228 235 240 245 245 248 249 250 256 255 251 255 256 255 251 257 262 265 267 265 261 257
207 203 201 203 205 206 211 213 214 213 212 212 211 213 216 219 225 230 235 236 239 241 239 243 247 252 252 254 253 255 257 256 255 252 252 248 252 256 259 261 262 262 258
207 204 199 204 207 208 211 216 218 221 220 225 220 221 223 227 231 234 241 241 244 244 246 249 252 256 257 256 257 256 257 258 255 253 251 250 247 250 253 256 258 259 259
193 194 195 202 207 212 216 221 226 227 229 229 230 231 229 233 237 238 243 245 245 246 248 251 256 259 260 260 260 260 259 257 256 255 253 251 248 245 247 250 253 255 256
127 156 174 187 205 212 219 225 228 233 235 237 239 239 238 240 242 245 247 249 250 249 248 249 253 255 256 257 261 261 258 255 256 256 254 249 247 247 244 244 247 250 251
92 112 138 168 190 205 217 226 234 239 241 246 245 244 243 244 245 245 249 252 253 249 248 250 252 254 260 261 263 264 262 260 258 255 253 251 247 245 246 246 245 247 248
78 87 101 126 156 179 200 220 231 243 247 249 249 248 249 247 245 247 250 254 254 248 247 248 252 254 258 267 273 271 266 262 257 254 253 252 248 244 243 245 245 245 245
75 77 81 91 110 139 159 195 224 243 248 248 251 255 254 253 250 246 249 254 250 247 250 253 255 258 258 261 271 272 263 255 250 248 247 248 247 244 242 242 241 241 244
71 71 74 78 89 111 137 193 253 275 275 276 266 263 261 259 255 252 252 253 252 251 254 255 253 255 258 247 250 278 284 273 247 238 242 244 248 247 244 242 240 239 240
66 64 67 69 76 83 106 175 239 260 264 260 271 274 272 268 262 255 255 257 256 252 254 255 251 247 251 250 232 244 268 278 303 253 237 243 246 246 246 244 242 241 239
72 69 69 69 67 68 79 14 306 304 307 314 311 298 292 279 271 265 262 261 260 256 256 256 253 250 249 254 248 234 242 263 278 287 257 244 248 253 254 251 247 245 242
79 73 71 71 65 59 53 28 325 316 316 314 311 304 303 294 281 274 269 266 262 260 259 259 258 253 247 248 250 249 246 248 248 257 273 274 265 255 252 253 253 250 245
87 77 70 68 62 50 40 22 353 337 325 320 318 316 311 304 294 285 279 271 267 265 264 262 260 257 253 251 250 248 248 247 246 249 263 269 270 268 263 254 250 250 249